Flag for Germany Weather past 2 weeks in Neustrelitz, Mecklenburg-Western Pomerania, Germany

Now
52 °F

Partly sunny.


Feels Like: 51 °F
Forecast: 36 / 56 °F
Wind: 5 mph from North

Location: Neuruppin

Current Time: Apr 18, 2015 at 4:18:54 PM

Latest Report: Apr 18, 2015 at 4:00 PM


Visibility: 6 mi

Pressure: 30.26 "Hg

Humidity: 42%

Dew point: 29 °F

Location of NeustrelitzLocation

Historic Weather in Neustrelitz — Graph

°F

Neustrelitz temperature yesterday

Maximum temperature yesterday: 53 °F (at 4:00 PM)
Minimum temperature yesterday: 35 °F (at 6:00 AM)
Average temperature yesterday: 43 °F

Past Weeks' High & Low Weather Summary

 TemperatureHumidityPressure
High71 °F (Apr 15, 4:00 PM)100% (Apr 9, 8:00 AM)30.58 "Hg (Apr 9, 8:00 AM)
Low28 °F (Apr 7, 6:00 AM)28% (Apr 5, 4:00 PM)29.81 "Hg (Apr 15, 7:00 PM)
Average46 °F68%30.20 "Hg
* Reported Apr 3 3:00 PM — Apr 18 3:00 PM, Neustrelitz, Weather by CustomWeather, © 2015

Note: Actual official high and low records may vary slightly from our data, if they occured in-between our weather recording intervals... More about our weather records

Advertising

Neustrelitz weather history for previous 24 hours

 ConditionsComfort  
Time TempWeatherWind HumidityBarometerVisibility
3:00 PM
Sat, Apr 18
51 °FScattered clouds.3 mph43%30.27 "Hg6 mi
2:00 PM50 °FPartly sunny.5 mph46%30.28 "Hg6 mi
1:00 PM49 °FPartly sunny.5 mph46%30.29 "Hg6 mi
12:00 PM48 °FPartly sunny.5 mph51%30.30 "Hg6 mi
10:00 AM44 °FPartly sunny.5 mph78%30.29 "Hg6 mi
9:00 AM40 °FSunny.3 mph88%30.29 "Hg6 mi
8:00 AM35 °FSunny.1 mph95%30.28 "Hg6 mi
7:00 AM32 °FSunny.1 mph96%30.27 "Hg6 mi
6:00 AM32 °FClear.2 mph97%30.25 "Hg6 mi
4:00 AM34 °FClear.2 mph96%30.22 "Hg3 mi
3:00 AM35 °FClear.1 mph95%30.21 "Hg6 mi
2:00 AM37 °FClear.2 mph92%30.20 "Hg6 mi
1:00 AM37 °FClear.2 mph92%30.17 "Hg7 mi
12:00 AM39 °FClear.2 mph90%30.14 "Hg6 mi
11:00 PM
Fri, Apr 17
40 °FPassing clouds.3 mph89%30.12 "Hg6 mi
10:00 PM42 °FOvercast.3 mph85%30.09 "Hg6 mi
9:00 PM43 °FOvercast.3 mph81%30.07 "Hg6 mi
8:00 PM43 °FOvercast.9 mph81%30.05 "Hg6 mi
7:00 PM51 °FScattered clouds.5 mph46%30.00 "Hg6 mi
6:00 PM52 °FScattered clouds.6 mph43%29.99 "Hg6 mi
4:00 PM53 °FPartly sunny.6 mph42%29.98 "Hg6 mi
Weather by CustomWeather, © 2015

See weather overviewHow to use our weather pages